Location: Chilton Park
(37.7711°N, 100.0276°W)
Time: 02:01:52
(UTC+00:00)

Cosmos 1500 Rocket - Pass Details

Date: 27 June 2022
Orbit: 601 x 632 km, 82.5° (Epoch: 16 August)

Event Time Altitude Azimuth Distance (km) Brightness Sun altitude
Rises 09:26:33 0° 147° (SSE) 2,875 6.8 -17.9°
Reaches altitude 10° 09:29:22 10° 128° (SE) 1,982 6.2 -17.5°
Maximum altitude 09:32:16 18° 87° (E) 1,555 6.1 -17.1°
Drops below altitude 10° 09:35:12 10° 45° (NE) 2,003 7.5 -16.8°
Sets 09:38:03 0° 26° (NNE) 2,921 8.5 -16.4°
